| time (UTC) | temp F | wind direction | speed knots | gust knots | rain 1hr in | rain 24hr in | rain mn in | humidity % | barometer mb |
| 20260505211530 | 77 | 199 | 4.3 | 11.3 | 0.00 | 0.00 | 0.00 | 39 | 1013.7 |
| 20260505210031 | 77 | 243 | 5.2 | 13.9 | 0.00 | 0.00 | 0.00 | 41 | 1013.9 |
| 20260505204530 | 77 | 228 | 4.3 | 10.4 | 0.00 | 0.00 | 0.00 | 42 | 1014.0 |
| 20260505203027 | 77 | 200 | 4.3 | 10.4 | 0.00 | 0.00 | 0.00 | 43 | 1014.2 |
| 20260505201530 | 76 | 250 | 5.2 | 10.4 | 0.00 | 0.00 | 0.00 | 43 | 1014.4 |
| 20260505200035 | 76 | 237 | 6.1 | 13.9 | 0.00 | 0.00 | 0.00 | 41 | 1014.7 |
| 20260505194530 | 76 | 258 | 4.3 | 10.4 | 0.00 | 0.00 | 0.00 | 43 | 1014.6 |
| 20260505193031 | 76 | 258 | 8.7 | 13.9 | 0.00 | 0.00 | 0.00 | 40 | 1015.2 |
| 20260505191530 | 76 | 73 | 2.6 | 16.5 | 0.00 | 0.00 | 0.00 | 41 | 1015.3 |
| 20260505190031 | 76 | 174 | 5.2 | 13.0 | 0.00 | 0.00 | 0.00 | 41 | 1015.6 |
| 20260505184530 | 76 | 241 | 6.1 | 15.6 | 0.00 | 0.00 | 0.00 | 41 | 1015.7 |
| 20260505183042 | 76 | 327 | 1.7 | 9.6 | 0.00 | 0.00 | 0.00 | 40 | 1015.7 |
| 20260505181531 | 75 | 202 | 4.3 | 11.3 | 0.00 | 0.00 | 0.00 | 43 | 1015.9 |
| 20260505180030 | 74 | 227 | 2.6 | 12.2 | 0.00 | 0.00 | 0.00 | 43 | 1016.0 |
| 20260505174528 | 74 | 219 | 6.1 | 14.8 | 0.00 | 0.00 | 0.00 | 44 | 1016.5 |
| 20260505173035 | 74 | 206 | 7.8 | 17.4 | 0.00 | 0.00 | 0.00 | 40 | 1016.7 |
| 20260505171534 | 74 | 255 | 7.0 | 13.9 | 0.00 | 0.00 | 0.00 | 40 | 1016.8 |
| 20260505170034 | 74 | 240 | 7.8 | 15.6 | 0.00 | 0.00 | 0.00 | 40 | 1016.7 |
| 20260505164530 | 74 | 223 | 7.8 | 18.2 | 0.00 | 0.00 | 0.00 | 42 | 1016.7 |
| 20260505163029 | 73 | 182 | 3.5 | 9.6 | 0.00 | 0.00 | 0.00 | 51 | 1016.7 |
| 20260505161529 | 71 | 258 | 5.2 | 12.2 | 0.00 | 0.00 | 0.00 | 52 | 1016.9 |
| 20260505153030 | 69 | 109 | 1.7 | 5.2 | 0.00 | 0.00 | 0.00 | 59 | 1017.1 |
| 20260505151528 | 68 | 237 | 0.9 | 5.2 | 0.00 | 0.00 | 0.00 | 59 | 1017.2 |
| 20260505124531 | 57 | 40 | 0.9 | 3.5 | 0.00 | 0.00 | 0.00 | 78 | 1016.6 |
| 20260505123031 | 55 | 27 | 1.7 | 3.5 | 0.00 | 0.00 | 0.00 | 82 | 1016.7 |
| 20260505121528 | 52 | 0 | 0.0 | 0.0 | 0.00 | 0.00 | 0.00 | 93 | 1016.6 |
| 20260505120038 | 49 | 0 | 0.0 | 0.0 | 0.00 | 0.00 | 0.00 | 94 | 1016.4 |
| 20260505114527 | 47 | 0 | 0.0 | 0.0 | 0.00 | 0.00 | 0.00 | 95 | 1016.3 |
| 20260505113032 | 46 | 0 | 0.0 | 0.0 | 0.00 | 0.00 | 0.00 | 96 | 1016.2 |
| 20260505111530 | 45 | 0 | 0.0 | 0.0 | 0.00 | 0.00 | 0.00 | 96 | 1016.1 |
| 20260505101536 | 45 | 0 | 0.0 | 0.0 | 0.00 | 0.00 | 0.00 | 95 | 1015.8 |
| 20260505100030 | 46 | 0 | 0.0 | 0.0 | 0.00 | 0.00 | 0.00 | 96 | 1015.8 |
| 20260505094531 | 46 | 0 | 0.0 | 0.0 | 0.00 | 0.00 | 0.00 | 95 | 1015.7 |
| 20260505093031 | 46 | 0 | 0.0 | 0.0 | 0.00 | 0.00 | 0.00 | 95 | 1015.6 |
| 20260505091530 | 46 | 0 | 0.0 | 0.0 | 0.00 | 0.00 | 0.00 | 94 | 1015.8 |
| 20260505090028 | 46 | 0 | 0.0 | 0.0 | 0.00 | 0.00 | 0.00 | 95 | 1015.6 |
| 20260505084540 | 46 | 0 | 0.0 | 0.0 | 0.00 | 0.00 | 0.00 | 94 | 1015.5 |
| 20260505083030 | 46 | 0 | 0.0 | 0.9 | 0.00 | 0.00 | 0.00 | 94 | 1015.4 |
| 20260505081529 | 46 | 0 | 0.0 | 0.0 | 0.00 | 0.00 | 0.00 | 94 | 1015.3 |
| 20260505080030 | 46 | 0 | 0.0 | 0.9 | 0.00 | 0.00 | 0.00 | 94 | 1015.3 |
| 20260505074531 | 47 | 0 | 0.0 | 0.0 | 0.00 | 0.00 | 0.00 | 94 | 1015.3 |
| 20260505073039 | 47 | 0 | 0.0 | 0.0 | 0.00 | 0.00 | 0.00 | 94 | 1015.3 |
| 20260505071530 | 47 | 0 | 0.0 | 0.0 | 0.00 | 0.00 | 0.00 | 93 | 1015.3 |
| 20260505070038 | 48 | 0 | 0.0 | 0.0 | 0.00 | 0.00 | 0.00 | 93 | 1015.5 |
| 20260505064530 | 48 | 0 | 0.0 | 0.0 | 0.00 | 0.00 | 0.00 | 93 | 1015.5 |
| 20260505063028 | 49 | 0 | 0.0 | 0.0 | 0.00 | 0.00 | 0.00 | 92 | 1015.6 |
| 20260505061536 | 49 | 0 | 0.0 | 0.0 | 0.00 | 0.00 | 0.00 | 92 | 1015.8 |
| 20260505060030 | 49 | 0 | 0.0 | 0.0 | 0.00 | 0.00 | 0.00 | 91 | 1015.7 |
| 20260505054542 | 50 | 0 | 0.0 | 0.0 | 0.00 | 0.00 | 0.00 | 90 | 1015.7 |
| 20260505053030 | 50 | 0 | 0.0 | 0.0 | 0.00 | 0.00 | 0.00 | 90 | 1015.8 |
| 20260505051531 | 50 | 0 | 0.0 | 0.0 | 0.00 | 0.00 | 0.00 | 89 | 1015.8 |
| 20260505041544 | 52 | 0 | 0.0 | 2.6 | 0.00 | 0.00 | 0.00 | 88 | 1015.9 |
| 20260505040038 | 52 | 0 | 0.0 | 0.0 | 0.00 | 0.00 | 0.00 | 87 | 1015.8 |
| 20260505034531 | 53 | 0 | 0.0 | 0.0 | 0.00 | 0.00 | 0.00 | 87 | 1015.9 |
| 20260505033028 | 53 | 0 | 0.0 | 0.0 | 0.00 | 0.00 | 0.00 | 86 | 1016.0 |
| 20260505031538 | 54 | 0 | 0.0 | 0.0 | 0.00 | 0.00 | 0.00 | 85 | 1016.0 |
| 20260505030029 | 55 | 0 | 0.0 | 0.0 | 0.00 | 0.00 | 0.00 | 84 | 1015.9 |
| 20260505024530 | 55 | 0 | 0.0 | 0.0 | 0.00 | 0.00 | 0.00 | 83 | 1015.9 |
| 20260505023030 | 56 | 0 | 0.0 | 0.0 | 0.00 | 0.00 | 0.00 | 82 | 1015.9 |
| 20260505021533 | 57 | 0 | 0.0 | 0.0 | 0.00 | 0.00 | 0.00 | 80 | 1015.7 |
| 20260505020028 | 58 | 0 | 0.0 | 0.0 | 0.00 | 0.00 | 0.00 | 78 | 1015.4 |
| 20260505014534 | 59 | 0 | 0.0 | 0.0 | 0.00 | 0.00 | 0.00 | 75 | 1015.4 |
| 20260505013031 | 60 | 0 | 0.0 | 0.0 | 0.00 | 0.00 | 0.00 | 75 | 1015.2 |
| 20260505011530 | 61 | 0 | 0.0 | 0.0 | 0.00 | 0.00 | 0.00 | 72 | 1015.2 |
| 20260505010028 | 61 | 0 | 0.0 | 0.0 | 0.00 | 0.00 | 0.00 | 71 | 1015.1 |
| 20260505004533 | 62 | 0 | 0.0 | 0.0 | 0.00 | 0.00 | 0.00 | 69 | 1014.8 |
| 20260505003029 | 64 | 0 | 0.0 | 0.0 | 0.00 | 0.00 | 0.00 | 67 | 1014.9 |
| 20260505001529 | 66 | 0 | 0.0 | 0.0 | 0.00 | 0.00 | 0.00 | 64 | 1014.8 |
| 20260505000038 | 67 | 0 | 0.0 | 0.0 | 0.00 | 0.00 | 0.00 | 57 | 1014.9 |
| 20260504234534 | 69 | 0 | 0.0 | 0.0 | 0.00 | 0.00 | 0.00 | 53 | 1014.7 |
| 20260504233033 | 71 | 0 | 0.0 | 3.5 | 0.00 | 0.00 | 0.00 | 50 | 1014.6 |
| 20260504231532 | 72 | 186 | 0.9 | 4.3 | 0.00 | 0.00 | 0.00 | 47 | 1014.5 |
| 20260504230030 | 73 | 280 | 0.9 | 5.2 | 0.00 | 0.00 | 0.00 | 43 | 1014.5 |
| 20260504224531 | 74 | 213 | 2.6 | 7.0 | 0.00 | 0.00 | 0.00 | 43 | 1014.3 |
| 20260504223052 | 74 | 212 | 3.5 | 7.0 | 0.00 | 0.00 | 0.00 | 42 | 1014.4 |
| 20260504221528 | 74 | 211 | 2.6 | 8.7 | 0.00 | 0.00 | 0.00 | 42 | 1014.5 |
| 20260504220028 | 75 | 223 | 5.2 | 9.6 | 0.00 | 0.00 | 0.00 | 41 | 1014.5 |
| 20260504214532 | 75 | 194 | 4.3 | 9.6 | 0.00 | 0.00 | 0.00 | 42 | 1014.4 |
| 20260504213040 | 75 | 259 | 3.5 | 9.6 | 0.00 | 0.00 | 0.00 | 41 | 1014.5 |